{"data":{"norad_id":52490,"intl_designator":"2022-049AR","name":"STARLINK-3914","alt_names":[],"object_type":"PAYLOAD","status":"ACTIVE","operator":null,"country":"US","launch_date":"2022-05-06","launch_site_code":"AFETR","launch_vehicle":null,"mission":null,"orbit_class":"UNKNOWN","rcs_meters":null,"size_class":null,"mass_kg":null,"dimensions":null,"purposes":["comms"],"wikipedia_slug":null,"has_3d_model":false,"image_url":null,"decayed_at":null,"tle_current":{"epoch":"2026-09-19T11:15:26.576640Z","epoch_age_seconds":152389,"freshness":"FRESH","line1":"1 52490U 22049AR  26262.46905760  .00000869  00000+0  39769-4 0  9992","line2":"2 52490  53.1593 254.5821 0001309  72.8664 287.2481 15.31706057241702","mean_motion":15.31706057,"eccentricity":0.0001309,"inclination_deg":53.1593,"raan_deg":254.5821,"arg_perigee_deg":72.8664,"mean_anomaly_deg":287.2481,"bstar":3.9769e-5,"rev_number":24170,"period_min":94.012816194015,"perigee_km":469.82542404812,"apogee_km":471.61845531853,"semimajor_km":6848.8589396833,"source":"CELESTRAK","updated_at":"2026-09-20T09:00:40.055354Z"}}}